Regional Weather Roundup
Issued by NWS Charleston, SC

Current Version | Previous Version | Graphics & Text | Print | Product List | Glossary On
Versions: 1 2 3 4 5 6 7 8 9 10 11 12 13 14 15 16 17 18 19 20 21 22 23 24 25 26 27 28 29 30 31 32 33 34 35 36 37 38 39 40 41 42 43 44 45 46 47 48 49 50
000 ASUS42 KCHS 291913 RWRCHS REGIONAL WEATHER ROUNDUP NATIONAL WEATHER SERVICE CHARLESTON SC 300 PM EDT FRI APR 29 2016 NOTE: "FAIR" INDICATES FEW OR NO CLOUDS BELOW 12,000 FEET WITH NO SIGNIFICANT WEATHER AND/OR OBSTRUCTIONS TO VISIBILITY. NOT ALL STATIONS ARE QUALITY CONTROLLED. USE DATA WITH CAUTION... ESPECIALLY DEWPOINT OBSERVATIONS. SCZ027-030-031-034>040-042>050-292000- ...SOUTHEAST SOUTH CAROLINA... CITY SKY/WX TMP DP RH WIND PRES REMARKS N CHARLESTON MOSUNNY 87 59 38 SE5 29.94S WATERFRONT PRK N/A 78 68 71 SE9 29.93S MOUNT PLEASANT FAIR 84 63 48 E7 29.95F JOHNS ISLAND FAIR 84 68 58 E13G18 29.96R PINOPOLIS N/A 84 72 65 VRB3 29.86S MONCKS CORNER FAIR 84 52 32 N7 29.94F SUMMERVILLE FAIR 88 61 40 NE5 29.95S BEAUFORT MCAS MOSUNNY 91 62 37 SE3 29.94S HX 91 BEAUFORT ARPT FAIR 88 59 37 SE6 29.94F HILTON HEAD IS MOSUNNY 84 63 48 S7 29.97R WALTERBORO CLEAR 90 52 27 CALM 29.94F ALLENDALE FAIR 90 54 29 N5 29.93F ...SOUTHERN MIDLANDS AND PEE DEE... CITY SKY/WX TMP DP RH WIND PRES REMARKS GEORGETOWN FAIR 82 64 54 E10 29.96S KINGSTREE FAIR 86 55 35 NW3 29.95F ORANGEBURG SUNNY 88 54 31 CALM 29.94F BARNWELL FAIR 91 57 31 CALM 29.95S HX 90 AIKEN FAIR 88 50 27 CALM 29.99R MANNING NOT AVBL COLUMBIA MOSUNNY 89 51 27 N5 29.94S SUMTER SUNNY 85 58 39 SE2 29.93F FLORENCE SUNNY 85 61 44 VRB3 29.95F MYRTLE BEACH MOSUNNY 81 63 54 E18 29.98R N MYRTLE BEACH SUNNY 75 66 73 SE13 29.97S $$ GAZ063-065-086>088-099>101-113>116-118-119-134>141-150-292000- ...SOUTHEAST GEORGIA... CITY SKY/WX TMP DP RH WIND PRES REMARKS SAVANNAH ARPT MOSUNNY 89 56 32 CALM 29.94S HUNTER AAF SUNNY 90 64 41 E10 29.92R HX 92 FORT STEWART SUNNY 90 57 33 SW5 29.91F STATESBORO SUNNY 94 62 35 SW6 29.94F HX 94 SYLVANIA CLEAR 91 60 35 CALM 29.94F HX 90 CLAXTON FAIR 91 62 37 W7 29.94F HX 91 ...CSRA...CENTRAL AND FAR SOUTHEAST GEORGIA... CITY SKY/WX TMP DP RH WIND PRES REMARKS THOMSON SUNNY 88 61 40 N5 30.00F AUGUSTA-BUSH SUNNY 89 55 31 E3 29.94S AUGUSTA-DANIEL SUNNY 91 52 26 VRB6 29.96S SWAINSBORO FAIR 88 50 27 CALM 29.96S VIDALIA SUNNY 88 59 37 NW6 29.95F EASTMAN FAIR 89 57 33 SE5 29.97F HAZLEHURST FAIR 90 57 32 CALM 29.94F ALMA SUNNY 89 60 37 CALM 29.94F WAYCROSS MOSUNNY 88 64 45 CALM 29.95S JESUP FAIR 93 63 36 W6 29.94F HX 94 BAXLEY FAIR 90 61 37 CALM 29.94F BRUNSWICK PTSUNNY 91 68 46 SE9 29.95S HX 95 SAINT SIMONS MOSUNNY 84 70 62 SE8 29.95F $$ SCZ027-028-034-036>038-045-046-048>050-GAZ119-141-292000- ...LAKE AND SUPPLEMENTAL COASTAL OBSERVATIONS... STATION/POSITION TIME TEMP WIND PRES WAVE SWELL AIR SEA DIR/SP/G HT/PER HT/PER/DIR (UTC) (F) (DEG/KT/KT) (MB) (FT/S) (FT/S/D) WINYAH BAY NOT AVBL LAKE MURRAY 1800 80 200/ 6/ 7 1013.9F ACE BASIN NERRS NOT AVBL FORT PULASKI 1800 80 72 80/ 10/ 11 1014.3F SAPELO ISLAND 1800 88 190/ 5 1014.0S $$ ANZ835-935-AMZ111-154-330-350-352-354-370-450-454-472-292000- ...C-MAN AND BUOY OBSERVATIONS... STATION/POSITION TIME TEMP WIND PRES WAVE SWELL AIR SEA DIR/SP/G HT/PER HT/PER/DIR (UTC) (F) (DEG/KT/KT) (MB) (FT/S) (FT/S/D) BUOY 41004 1850 72 73 40/ 8/ 10 1014.2R 2/ 9 2/ 9 BUOY 41008 NOT AVBL FOLLY BEACH CMAN 1900 78 100/ 6/ 8 1014.8R CAPERS NEARSHORE 1808 76 71 120/ 8/ 10 1014.0F FRIPP NEARSHORE 1808 76 71 170/ 4/ 6 1013.7R STATION/POSITION TIME TEMP WIND PRES WAVE SWELL AIR SEA DIR/SP/G HT/PER HT/PER/DIR (UTC) (F) (DEG/KT/KT) (MB) (FT/S) (FT/S/D) 5E ST. MARYS GA 1821 75 N/A 1/10 FRYING PAN BUOY 1800 69 70 40/ 16/ 17 1013.9F BUOY 41025 1850 65 75 360/ 14/ 16 1013.1F 3/ 4 2/ 60/ 8 CAPE LOOKOUT NC 1800 69 360/ 6/ 9 1014.1F BUOY 41002 1850 72 71 210/ 16/ 17 1013.4F 3/ 5 2/ 50/11 BUOY 41010 1820 77 77 210/ 8/ 10 1015.3F ST AUGUSTINE FL 1900 74 72 80/ 6/ 7 1015.2F $$

USA.gov is the U.S. government's official web portal to all federal, state and local government web resources and services.